Regional Weather Roundup
Issued by NWS

Home | Current Version | Previous Version | Graphics & Text | Print | Product List | Glossary On
Versions: 1 2 3 4 5 6 7 8 9 10 11 12 13 14 15 16 17 18 19 20 21 22 23 24 25 26 27 28 29 30 31 32 33 34 35 36 37 38 39 40 41 42 43 44 45 46 47 48 49 50
000
ASUS43 KMKX 200811
RWRWI

WISCONSIN REGIONAL WEATHER ROUNDUP
NATIONAL WEATHER SERVICE MILWAUKEE/SULLIVAN WI
300 AM CDT SUN AUG 20 2017

NOTE: "FAIR" INDICATES FEW OR NO CLOUDS BELOW 12,000 FEET WITH NO
SIGNIFICANT WEATHER AND/OR OBSTRUCTIONS TO VISIBILITY.

WIZ001-002-006>008-014>016-023>028-200900-
NORTHWEST WISCONSIN

CITY           SKY/WX    TMP DP  RH WIND       PRES   REMARKS
SUPERIOR ARPT  FOG       55  55 100 CALM      29.86F VSB 1/2
ASHLAND        CLEAR     59  57  93 SW3       29.90S
HAYWARD        CLEAR     55  52  89 CALM      29.91F
SIREN          CLEAR     62  60  94 S7        29.89F
CUMBERLAND     CLEAR     55  55 100 CALM      29.92S FOG
RICE LAKE      CLEAR     59  59  98 CALM      29.92F
CHETEK         CLEAR     58  58 100 CALM      29.92S FOG
LADYSMITH      CLEAR     59  58  96 SE3       29.95S
EAU CLAIRE     CLEAR     60  59  96 CALM      29.91F
MENOMONIE      CLEAR     61  60  98 CALM      29.91S
NEW RICHMOND   CLEAR     61  60  97 CALM      29.89F
OSCEOLA        CLEAR     62  62 100 CALM      29.91F
$$

WIZ003>005-009-010-017-018-200900-
NORTH CENTRAL WISCONSIN

CITY           SKY/WX    TMP DP  RH WIND       PRES   REMARKS
MANITOWISH WTR FOG       53  53 100 CALM      29.95F VSB 1/4
ARBOR VITAE    CLEAR     57  55  94 CALM      29.96S
WOODRUFF       CLEAR     57  55  94 CALM      29.96S
RHINELANDER    MOCLDY    55  55 100 CALM      29.97F FOG
EAGLE RIVER    FOG       54  54 100 CALM      29.96S VSB 3/4
LAND O LAKES   FOG       52  52 100 CALM      29.98S VSB 1/2
PHILLIPS       CLEAR     56  56 100 CALM      29.94F
TOMAHAWK         N/A     52  52  97 CALM      29.97S
MEDFORD        CLEAR     56  55  96 CALM      29.96S
MERRILL        NOT AVBL
$$

WIZ029-030-035-036-043>047-200900-
CENTRAL WISCONSIN

CITY           SKY/WX    TMP DP  RH WIND       PRES   REMARKS
WAUSAU         CLEAR     57  57 100 E5        29.95F
MOSINEE        CLEAR     55  55 100 CALM      29.98S
MARSHFIELD     CLEAR     59  56  89 CALM      29.95F
STEVENS POINT  CLEAR     54  54 100 CALM      29.98S
WAUPACA        PTCLDY    58  58  97 CALM      29.97F
WAUTOMA        CLEAR     56  55  97 CALM      29.98S
WISC RAPIDS    CLEAR     57  56  96 CALM      29.97F
CAMP DOUGLAS   CLEAR     58  58 100 CALM      29.95F
$$

WIZ011>013-019>022-031-037>040-048>050-200900-
NORTHEAST WISCONSIN

CITY           SKY/WX    TMP DP  RH WIND       PRES   REMARKS
ANTIGO         PTCLDY    53  53 100 CALM      29.98S
SHAWANO        CLEAR     60  58  94 CALM      29.96F FOG
OCONTO         CLEAR     57  56  96 CALM      29.95F
STURGEON BAY   CLEAR     64  60  87 SW6       29.97S
GREEN BAY      CLEAR     59  59 100 S5        29.97S
MANITOWOC      CLEAR     66  60  81 W5        29.98S
APPLETON       CLEAR     61  54  77 S3        29.96S
CLINTONVILLE   PTCLDY    55  55 100 CALM      29.97S
OSHKOSH        CLEAR     62  58  86 S3        29.97S
$$

WIZ032>034-041-042-053>061-200900-
SOUTHWEST WISCONSIN

CITY           SKY/WX    TMP DP  RH WIND       PRES   REMARKS
LA CROSSE      CLOUDY    64  61  90 SE6       29.92F
SPARTA         CLEAR     52  52  99 CALM      29.95F
VIROQUA        CLOUDY    63  61  95 CALM      29.95F
BOSCOBEL       FOG       60  59  96 CALM      29.96F VSB 1/4
PRAIRIE DU CHI PTCLDY    60  58  92 E5        29.95R
PLATTEVILLE    CLEAR     63  62  97 SE7       29.97F
$$

WIZ056-057-062-063-064-067-068-200900-
SOUTH CENTRAL WISCONSIN

CITY           SKY/WX    TMP DP  RH WIND       PRES   REMARKS
REEDSBURG      CLEAR     58  58 100 CALM      29.96F
BARABOO/DELLS  CLEAR     60  57  91 S3        29.96F
LONE ROCK      CLEAR     57  57 100 CALM      29.95F
MINERAL POINT  CLEAR     63  63 100 SE5       29.97F
MADISON        CLEAR     62  60  93 CALM      29.97F
MIDDLETON      CLEAR     58  58 100 CALM      29.98F
WATERTOWN      CLEAR     59  59 100 CALM      29.99S
MONROE         CLEAR     64  59  82 S8        29.98F
JANESVILLE     CLEAR     61  61 100 CALM      29.98S
$$

WIZ051-052-058>065-066-070>072-200900-
SOUTHEAST WISCONSIN

CITY           SKY/WX    TMP DP  RH WIND       PRES   REMARKS
MILWAUKEE      CLEAR     67  58  72 CALM      30.00F
WAUKESHA       CLEAR     61  59  94 SW3       30.01S
MILWAUKEE/TIMM CLEAR     61  55  82 CALM      30.01S
RACINE         CLEAR     63  56  78 SW3       30.01F
KENOSHA        CLEAR     58  56  93 CALM      30.01S
FOND DU LAC    LGT RAIN  61  57  87 S6        29.98S
SHEBOYGAN      CLEAR     61  61 100 SW3       29.99S
WEST BEND      CLEAR     57  57 100 CALM      30.00S
JUNEAU         CLEAR     60  59  96 CALM      30.00F FOG
$$

LSZ147-162-200900-
LAKE SUPERIOR

STATION/POSITION TIME  TEMP    WIND        PRES    WAVE
                       AIR SEA DIR/SP/G            HT/PER
                 (UTC) (F)     (DEG/KT/KT) (MB)    (FT/S)
W MID LAKE BUOY  0750   63 60  220/ 10/ 12 1011.2R   1
DEVILS ISLAND    0800   68     190/  7/  9 1011.3S
SAXON HARBOR     0740   64     200/  5/  9 1011.9S
$$

LMZ867-665-643>646-200900-
LAKE MICHIGAN

STATION/POSITION TIME  TEMP    WIND        PRES    WAVE
                       AIR SEA DIR/SP/G            HT/PER
                 (UTC) (F)     (DEG/KT/KT) (MB)    (FT/S)
S GREEN BAY BUOY 0630   71 71  230/  8/ 10 1014.2R
N MID LAKE BUOY  0750   69 67  240/ 12/ 14 1014.1R   2/ 4
NORTHPORT PIER   0740   69     270/  4/  8 1013.9R
KEWAUNEE LAKESHO 0742   65     310/  3/  5 1014.0R
SHEBOYGAN LAKESH 0800   68     250/  6/  7 1014.8S
PORT WASHINGTON  0740   66      CALM  /  4 1016.3F
ATWATER BUOY     0709   71 70  190/  6/  6 1015.8R
MILWAUKEE LAKESH 0750   70     230/  6/  7   N/A
S MID LAKE BUOY  0750   72 71  160/  6/  6 1015.8S   1
KENOSHA   LAKESH 0800   69     210/  5/  5 1015.6
$$

TC  - TEMPERATURE IN CELSIUS
VSB - VISIBILITY IN STATUTE MILES
WCI - WIND CHILL INDEX
HX  - HEAT INDEX




USA.gov is the U.S. government's official web portal to all federal, state and local government web resources and services.